Regional Weather Roundup
Issued by NWS

Home | Current Version | Previous Version | Text Only | Print | Product List | Glossary Off
Versions: 1 2 3 4 5 6 7 8 9 10 11 12 13 14 15 16 17 18 19 20 21 22 23 24 25 26 27 28 29 30 31 32 33 34 35 36 37 38 39 40 41 42 43 44 45 46 47 48 49 50

000
ASUS45 KTFX 190310
RWRMT
MONTANA REGIONAL WEATHER ROUNDUP
NATIONAL WEATHER SERVICE GREAT FALLS MT
800 PM MST WED JAN 18 2017

NOTE: "FAIR" INDICATES FEW OR NO CLOUDS BELOW 12000 FEET WITH NO
SIGNIFICANT WEATHER AND/OR OBSTRUCTIONS TO VISIBILITY.

MTZ001>007-043-190400-
WEST OF THE DIVIDE

CITY           SKY/WX    TMP DP  RH WIND       PRES   REMARKS
KALISPELL      CLOUDY    30  29  96 NW3       29.57F FOG
MISSOULA       CLOUDY    28  23  81 CALM      29.60F
BUTTE          CLOUDY    26  19  74 SE8       29.64F WCI  18
MULLAN PASS    FOG       32  31  96 VRB3      29.52F VSB 1/2
ANACONDA         N/A     37  21  52 SE12G18   29.60F WCI  30
DEER LODGE       N/A     37  27  65 SW8       29.61F WCI  31
EUREKA           N/A     39  34  81 SE15      29.54S WCI  31
HAMILTON         N/A     39  32  75 SE18      29.60R WCI  30
RONAN            N/A     30  27  89 S1        29.63F
$$

MTZ008-052>055-190400-
SOUTHWEST MONTANA

CITY           SKY/WX    TMP DP  RH WIND       PRES   REMARKS
BOZEMAN        CLOUDY    21  14  74 CALM      29.65F
DILLON         CLOUDY    35  19  52 SW8       29.67F WCI  29
W YELLOWSTONE  CLOUDY    10   9  92 CALM      29.85S
ENNIS          PTCLDY    34  21  60 S24G33    29.74R WCI  21
TWIN BRIDGES     N/A     29  15  55 E9        29.72F WCI  21
$$

MTZ009-010-012-014-046-048-049-054-190400-
EAST SLOPES AND CENTRAL MONTANA

CITY           SKY/WX    TMP DP  RH WIND       PRES   REMARKS
CUT BANK       PTCLDY    41  32  70 SW10      29.46S
GREAT FALLS    CLOUDY    42  25  50 SW15      29.51F
MALMSTROM AFB  CLOUDY    40  28  63 SW15      29.51F
HELENA         CLOUDY    30  20  66 CALM      29.61F
AUGUSTA          N/A     40  31  68 SW15      29.52R
BOWMANS CRNR     N/A     37  25  60 S16       29.53S WCI  28
CHOTEAU          N/A     45  32  61 S13G22    29.52S
CONRAD           N/A     43  36  76 S17       29.54F
POWER            N/A     40  28  63 SW17      29.50S
RAYNESFORD     MOCLDY    47  25  41 S3        29.53S
ULM            MOCLDY    42  27  55 MISG      29.51F
$$

MTZ011-013-016-021-045-047-050-051-190400-
NORTH CENTRAL MONTANA

CITY           SKY/WX    TMP DP  RH WIND       PRES   REMARKS
HAVRE          CLEAR     36  31  82 W8        29.49S WCI  30
LEWISTOWN      CLOUDY    39  27  62 N7        29.53F
N BAR RANCH      N/A     37  27  65 W7        29.56F
CHINOOK          N/A     39  32  75 CALM      29.48R
DENTON           N/A     35  29  76 SE15      29.48R WCI  26
FORT BENTON      N/A     43  28  56 MISG      29.49F
GEYSER           N/A     40  27  59 W17       29.49F
GRASS RANGE      N/A     44  28  53 NE3       29.49F
JUDITH GAP       N/A     39  27  61 SW22      29.57F WCI  28
ROY              N/A     44  29  55 MISG      29.50S
STANFORD         N/A     43  29  56 W23       29.50F
WINIFRED         N/A     46  28  48 SW16      29.50R
$$

MTZ017>020-022>027-061-062-190400-
NORTHEAST MONTANA

CITY           SKY/WX    TMP DP  RH WIND       PRES   REMARKS
GLASGOW        CLOUDY    31  25  78 E10       29.50S WCI  22
JORDAN           N/A     32  27  81 CALM      29.51F
SIDNEY         CLOUDY    26  22  84 S7        29.56F WCI  18
WOLF POINT     CLOUDY    24  20  84 NE3       29.53F
PLENTYWOOD       N/A     32  25  74 E8        29.50F WCI  25
POPLAR           N/A     36  27  69 CALM      29.53F
SCOBEY           N/A     30  20  66 SE1       29.50F
$$

MTZ028>42-056>058-190400-
SOUTHCENTRAL AND SOUTHEAST MONTANA

CITY           SKY/WX    TMP DP  RH WIND       PRES   REMARKS
BAKER          CLOUDY    23  17  78 NW3       29.59F
BILLINGS       CLOUDY    38  23  55 SW18      29.61F WCI  28
LIVINGSTON     CLOUDY    44  16  32 SW21G36   29.63F
MILES CITY     CLOUDY    30  22  72 SE12      29.58S WCI  20
BIG TIMBER     CLEAR     41  19  42 W20       29.64F
EKALAKA          N/A     40  18  41 SE9       29.61
FORSYTH          N/A     30  23  74 CALM      29.59R
HARLOWTON        N/A     38  23  53 W9        29.59F WCI  32
LAUREL           N/A     36  19  50 S12       29.63S WCI  28
ROUNDUP          N/A     42  23  47 S13       29.52F
$$

REGIONAL REPORTS...DAKOTAS

CITY           SKY/WX    TMP DP  RH WIND       PRES   REMARKS
WILLISTON      CLOUDY    28  24  85 SW5       29.55F
MINOT          CLOUDY    37  27  67 SW17      29.51F WCI  27
DICKINSON      CLOUDY    34  22  61 W6        29.55F WCI  29
BEACH            N/A     32  23  69 S10       29.59S WCI  24
CROSBY           N/A     28  25  86 SW18      29.51S WCI  16
TIOGA            N/A     28  27  93 SW8       29.55S WCI  20
WATFORD CITY     N/A     27  23  86 CALM      29.56S
BISMARCK       CLOUDY    20  14  77 SE7       29.63F WCI  11
GRAND FORKS    CLOUDY    27  20  75 S10       29.65F WCI  17
FARGO          CLOUDY    32  26  78 S10       29.71S WCI  24
BUFFALO SD       N/A     30  22  72 S7        29.53F WCI  23
RAPID CITY     CLOUDY    28  23  81 N9        29.58F WCI  19
$$

REGIONAL REPORTS...WYOMING/IDAHO/WASHINGTON

CITY           SKY/WX    TMP DP  RH WIND       PRES   REMARKS
GILLETTE       CLOUDY    39  22  50 VRB5      29.60F
SHERIDAN       CLOUDY    26  19  74 W6        29.63R WCI  19
BUFFALO WY     CLOUDY    45  18  34 NW13      29.62S
CODY           CLOUDY    29  19  66 VRB5      29.68S
YELLOWSTONE LA   N/A     10   9  95 CALM      29.85F
IDAHO FALLS    CLOUDY    16  12  84 CALM      29.87F
SALMON         CLOUDY    16   9  73 W3        29.77F
BOISE          FRZ RAIN  32  30  92 SE14      29.75S FOG     WCI  22
SPOKANE        LGT RAIN  36  33  89 E3        29.51F
$$

REGIONAL REPORTS...ALBERTA

CITY           SKY/WX    TMP DP  RH WIND       PRES   REMARKS
EDMONTON       CLOUDY    37  25  60 SE2       29.14F
CALGARY        CLEAR     37  27  65 N5        29.28F
LETHBRIDGE     MOCLDY    43  32  65 SW15      29.37S
MEDICINE HAT   PTCLDY    39  34  81 S15       29.39F WCI  31
WATERTON GATE    N/A     41  32  70 SW33G48     N/A
MILK RIVER       N/A     41  36  81 SW14G22     N/A
$$

REGIONAL REPORTS...SASKATCHEWAN

CITY           SKY/WX    TMP DP  RH WIND       PRES   REMARKS
SWIFT CURRENT  CLEAR     36  32  87 SW13      29.37F WCI  27
REGINA         PTCLDY    34  28  80 SE10      29.40F WCI  26
SASKATOON      CLEAR     36  32  87 SW14G21   29.28R WCI  27
CYPRESS HILLS    N/A     36  28  75 S6          N/A  WCI  31
VAL MARIE        N/A     32  28  86 S7          N/A  WCI  26
ROCKGLEN         N/A     37  30  75 SW17        N/A  WCI  28
ASSINIBOIA       N/A     32  28  86 S8          N/A  WCI  25
$$



USA.gov is the U.S. government's official web portal to all federal, state and local government web resources and services.